TimeMST,TemperatureF,Dew PointF,Humidity,Sea Level PressureIn,VisibilityMPH,Wind Direction,Wind SpeedMPH,Gust SpeedMPH,PrecipitationIn,Events,Conditions,WindDirDegrees,DateUTC
12:53 AM,33.1,19.0,56,29.87,10.0,WNW,8.1,-,N/A,,Overcast,290,2013-11-05 07:53:00
1:53 AM,30.9,21.0,67,29.88,10.0,NW,10.4,-,N/A,,Overcast,310,2013-11-05 08:53:00
2:53 AM,30.9,21.9,69,29.91,10.0,NW,11.5,-,N/A,,Overcast,320,2013-11-05 09:53:00
3:53 AM,30.9,23.0,72,29.90,10.0,NNW,15.0,-,N/A,,Overcast,330,2013-11-05 10:53:00
4:50 AM,30.2,24.8,80,29.94,10.0,North,15.0,-,N/A,,Overcast,350,2013-11-05 11:50:00
4:53 AM,30.9,25.0,79,29.95,10.0,North,17.3,-,N/A,,Overcast,350,2013-11-05 11:53:00
5:53 AM,30.9,26.1,82,29.99,10.0,North,12.7,-,N/A,,Overcast,360,2013-11-05 12:53:00
6:51 AM,30.2,23.0,75,29.98,10.0,North,10.4,-,N/A,,Overcast,10,2013-11-05 13:51:00
6:53 AM,30.9,21.9,69,30.00,10.0,North,10.4,-,N/A,,Overcast,10,2013-11-05 13:53:00
7:53 AM,30.9,19.9,64,30.03,10.0,North,8.1,-,N/A,,Mostly Cloudy,10,2013-11-05 14:53:00
8:53 AM,35.1,17.1,48,30.04,10.0,North,12.7,-,N/A,,Mostly Cloudy,360,2013-11-05 15:53:00
9:53 AM,36.0,14.0,41,30.05,10.0,North,17.3,-,0.01,,Mostly Cloudy,360,2013-11-05 16:53:00
10:53 AM,37.9,12.0,35,30.05,10.0,North,19.6,-,N/A,,Mostly Cloudy,10,2013-11-05 17:53:00
11:53 AM,41.0,10.9,29,30.01,10.0,NNE,13.8,26.5,N/A,,Scattered Clouds,20,2013-11-05 18:53:00
12:53 PM,42.1,9.0,26,29.99,10.0,North,17.3,24.2,N/A,,Scattered Clouds,360,2013-11-05 19:53:00
1:53 PM,43.0,10.0,26,30.00,10.0,NNE,12.7,24.2,N/A,,Scattered Clouds,20,2013-11-05 20:53:00
2:53 PM,42.1,10.0,27,30.02,10.0,NNE,13.8,20.7,N/A,,Scattered Clouds,30,2013-11-05 21:53:00
3:53 PM,39.0,8.1,28,30.06,10.0,NNE,12.7,-,N/A,,Scattered Clouds,20,2013-11-05 22:53:00
4:53 PM,33.1,8.1,35,30.12,10.0,NE,11.5,-,N/A,,Partly Cloudy,40,2013-11-05 23:53:00
5:53 PM,28.0,10.0,47,30.15,10.0,ENE,11.5,-,N/A,,Partly Cloudy,70,2013-11-06 00:53:00
6:53 PM,25.0,10.0,53,30.19,10.0,SSE,10.4,-,N/A,,Clear,150,2013-11-06 01:53:00
7:53 PM,23.0,10.0,58,30.20,10.0,SSE,10.4,-,N/A,,Clear,160,2013-11-06 02:53:00
8:53 PM,23.0,10.0,58,30.19,10.0,South,11.5,-,N/A,,Clear,170,2013-11-06 03:53:00
9:53 PM,25.0,10.0,53,30.18,10.0,SSW,12.7,-,N/A,,Clear,200,2013-11-06 04:53:00
10:53 PM,26.1,10.9,53,30.16,10.0,South,16.1,-,N/A,,Clear,180,2013-11-06 05:53:00
11:53 PM,23.0,9.0,55,30.15,10.0,South,13.8,-,N/A,,Clear,180,2013-11-06 06:53:00